Location: Broletto
(44.6000°N, 10.5833°E)
Time: 02:08:43
(UTC+00:00)

IGS 5A - Pass Details

Date: 18 April 2021
Orbit: 583 x 588 km, 97.6° (Epoch: 06 May)

Event Time Altitude Azimuth Distance (km) Brightness Sun altitude
Exits shadow 19:27:45 23° 125° (SE) 1,250 4.5 -14.0°
Maximum altitude 19:29:46 39° 71° (ENE) 881 4.0 -14.3°
Drops below altitude 10° 19:33:39 10° 2° (N) 1,915 6.5 -14.9°
Sets 19:35:54 0° 355° (N) 2,819 7.5 -15.2°
